TimeEST,TemperatureF,Dew PointF,Humidity,Sea Level PressureIn,VisibilityMPH,Wind Direction,Wind SpeedMPH,Gust SpeedMPH,PrecipitationIn,Events,Conditions,WindDirDegrees,DateUTC
12:15 AM,32.0,25.3,76,30.44,10.0,NNW,3.5,-,N/A,,Clear,330,2012-11-17 05:15:00
12:35 AM,30.0,25.2,82,30.44,10.0,Calm,Calm,-,N/A,,Clear,0,2012-11-17 05:35:00
12:55 AM,34.7,26.2,71,30.44,10.0,West,8.1,-,N/A,,Clear,280,2012-11-17 05:55:00
1:15 AM,34.5,26.1,71,30.44,10.0,WNW,5.8,-,N/A,,Clear,290,2012-11-17 06:15:00
1:35 AM,34.9,26.2,71,30.45,10.0,West,8.1,-,N/A,,Clear,280,2012-11-17 06:35:00
1:55 AM,34.7,26.1,71,30.45,10.0,West,5.8,-,N/A,,Clear,280,2012-11-17 06:55:00
2:15 AM,32.2,25.7,77,30.46,10.0,NE,3.5,-,N/A,,Clear,40,2012-11-17 07:15:00
2:35 AM,32.2,26.1,78,30.46,10.0,Calm,Calm,-,N/A,,Clear,0,2012-11-17 07:35:00
2:55 AM,32.0,25.9,78,30.47,10.0,NW,4.6,-,N/A,,Clear,320,2012-11-17 07:55:00
3:15 AM,30.4,25.7,83,30.47,10.0,Calm,Calm,-,N/A,,Clear,0,2012-11-17 08:15:00
3:35 AM,28.4,25.0,87,30.47,10.0,Calm,Calm,-,N/A,,Clear,0,2012-11-17 08:35:00
3:55 AM,29.3,26.2,88,30.48,10.0,NW,3.5,-,N/A,,Clear,320,2012-11-17 08:55:00
4:15 AM,31.1,26.8,84,30.49,10.0,NW,6.9,-,N/A,,Clear,320,2012-11-17 09:15:00
4:35 AM,32.7,27.9,82,30.49,10.0,NW,8.1,-,N/A,,Clear,310,2012-11-17 09:35:00
4:55 AM,32.7,27.3,81,30.50,10.0,Calm,Calm,-,N/A,,Clear,0,2012-11-17 09:55:00
5:15 AM,27.5,25.2,91,30.51,10.0,East,4.6,-,N/A,,Clear,100,2012-11-17 10:15:00
5:35 AM,27.1,25.2,92,30.52,10.0,Calm,Calm,-,N/A,,Clear,0,2012-11-17 10:35:00
5:55 AM,25.7,23.9,93,30.53,10.0,Calm,Calm,-,N/A,,Clear,0,2012-11-17 10:55:00
6:15 AM,25.7,24.3,94,30.54,10.0,Calm,Calm,-,N/A,,Clear,0,2012-11-17 11:15:00
6:35 AM,26.1,24.8,95,30.55,10.0,Calm,Calm,-,N/A,,Clear,0,2012-11-17 11:35:00
6:55 AM,25.7,24.8,96,30.56,10.0,Calm,Calm,-,N/A,,Clear,0,2012-11-17 11:55:00
7:15 AM,25.3,24.4,96,30.57,10.0,Calm,Calm,-,N/A,,Clear,0,2012-11-17 12:15:00
7:35 AM,26.4,25.5,96,30.57,10.0,Calm,Calm,-,N/A,,Clear,0,2012-11-17 12:35:00
7:55 AM,27.7,26.2,94,30.57,10.0,Calm,Calm,-,N/A,,Clear,0,2012-11-17 12:55:00
8:15 AM,30.9,28.2,90,30.58,10.0,Calm,Calm,-,N/A,,Clear,0,2012-11-17 13:15:00
8:35 AM,32.7,28.6,85,30.58,10.0,East,3.5,-,N/A,,Clear,90,2012-11-17 13:35:00
8:55 AM,36.5,28.4,72,30.59,10.0,Calm,Calm,-,N/A,,Clear,0,2012-11-17 13:55:00
9:15 AM,38.3,28.8,69,30.59,10.0,Calm,Calm,-,N/A,,Clear,0,2012-11-17 14:15:00
9:35 AM,39.7,26.8,60,30.59,10.0,West,3.5,-,N/A,,Clear,260,2012-11-17 14:35:00
9:55 AM,40.6,26.4,57,30.59,10.0,West,3.5,-,N/A,,Clear,280,2012-11-17 14:55:00
10:15 AM,41.7,26.1,54,30.59,10.0,WNW,4.6,-,N/A,,Clear,290,2012-11-17 15:15:00
10:35 AM,41.9,25.5,52,30.59,10.0,West,8.1,-,N/A,,Clear,270,2012-11-17 15:35:00
10:55 AM,42.1,25.7,52,30.59,10.0,West,9.2,-,N/A,,Clear,280,2012-11-17 15:55:00
11:15 AM,42.8,24.8,49,30.58,10.0,West,8.1,-,N/A,,Clear,270,2012-11-17 16:15:00
11:35 AM,43.0,24.4,48,30.58,10.0,West,8.1,-,N/A,,Clear,280,2012-11-17 16:35:00
12:55 PM,44.4,22.8,43,30.56,10.0,West,8.1,-,N/A,,Clear,280,2012-11-17 17:55:00
1:15 PM,44.8,21.9,40,30.57,10.0,WSW,8.1,-,N/A,,Clear,250,2012-11-17 18:15:00
1:35 PM,45.0,20.8,38,30.56,10.0,West,5.8,-,N/A,,Clear,260,2012-11-17 18:35:00
1:55 PM,44.8,19.6,37,30.56,10.0,West,8.1,-,N/A,,Clear,270,2012-11-17 18:55:00
2:15 PM,44.8,19.4,36,30.56,10.0,West,9.2,16.1,N/A,,Clear,260,2012-11-17 19:15:00
2:35 PM,44.8,19.0,36,30.56,10.0,West,8.1,-,N/A,,Clear,260,2012-11-17 19:35:00
2:55 PM,44.2,16.7,33,30.57,10.0,West,10.4,18.4,N/A,,Clear,260,2012-11-17 19:55:00
3:15 PM,43.9,15.6,32,30.57,10.0,West,10.4,16.1,N/A,,Clear,270,2012-11-17 20:15:00
3:35 PM,42.4,15.1,33,30.57,10.0,West,10.4,-,N/A,,Clear,270,2012-11-17 20:35:00
3:55 PM,41.9,14.9,34,30.58,10.0,West,8.1,-,N/A,,Clear,280,2012-11-17 20:55:00
4:15 PM,41.0,16.7,37,30.58,10.0,West,8.1,-,N/A,,Clear,280,2012-11-17 21:15:00
4:55 PM,40.5,18.3,41,30.59,10.0,West,5.8,-,N/A,,Clear,280,2012-11-17 21:55:00
5:15 PM,39.6,19.2,44,30.60,10.0,West,5.8,-,N/A,,Clear,280,2012-11-17 22:15:00
5:35 PM,37.6,19.8,49,30.60,10.0,NW,4.6,-,N/A,,Clear,310,2012-11-17 22:35:00
5:55 PM,35.4,20.3,54,30.61,10.0,Calm,Calm,-,N/A,,Clear,0,2012-11-17 22:55:00
6:15 PM,32.4,21.4,64,30.62,10.0,NE,3.5,-,N/A,,Clear,50,2012-11-17 23:15:00
6:35 PM,32.5,21.0,63,30.62,10.0,Calm,Calm,-,N/A,,Clear,0,2012-11-17 23:35:00
6:55 PM,29.7,22.8,76,30.63,10.0,Calm,Calm,-,N/A,,Clear,0,2012-11-17 23:55:00
7:15 PM,28.9,22.5,77,30.63,10.0,Calm,Calm,-,N/A,,Clear,0,2012-11-18 00:15:00
7:35 PM,28.2,23.0,81,30.63,10.0,Calm,Calm,-,N/A,,Clear,0,2012-11-18 00:35:00
7:55 PM,28.2,23.0,81,30.64,10.0,Calm,Calm,-,N/A,,Clear,0,2012-11-18 00:55:00
8:15 PM,28.4,22.1,77,30.64,10.0,Calm,Calm,-,N/A,,Clear,0,2012-11-18 01:15:00
8:35 PM,27.1,22.1,81,30.64,10.0,Calm,Calm,-,N/A,,Clear,0,2012-11-18 01:35:00
8:55 PM,26.1,22.5,86,30.65,10.0,Calm,Calm,-,N/A,,Clear,0,2012-11-18 01:55:00
9:15 PM,26.6,22.8,86,30.65,10.0,Calm,Calm,-,N/A,,Clear,0,2012-11-18 02:15:00
9:35 PM,25.7,23.0,89,30.65,10.0,Calm,Calm,-,N/A,,Clear,0,2012-11-18 02:35:00
9:55 PM,25.5,22.5,88,30.65,10.0,Calm,Calm,-,N/A,,Clear,0,2012-11-18 02:55:00
10:15 PM,25.5,23.0,90,30.65,10.0,Calm,Calm,-,N/A,,Clear,0,2012-11-18 03:15:00
10:35 PM,24.8,22.5,91,30.66,10.0,Calm,Calm,-,N/A,,Clear,0,2012-11-18 03:35:00
10:55 PM,24.6,22.1,90,30.67,10.0,Calm,Calm,-,N/A,,Clear,0,2012-11-18 03:55:00
11:15 PM,23.0,20.8,91,30.67,10.0,Calm,Calm,-,N/A,,Clear,0,2012-11-18 04:15:00
11:35 PM,23.7,22.5,95,30.67,10.0,Calm,Calm,-,N/A,,Clear,0,2012-11-18 04:35:00
11:55 PM,23.9,22.3,94,30.68,10.0,Calm,Calm,-,N/A,,Clear,0,2012-11-18 04:55:00